Location: Browne Barr
(41.2080°N, 111.9480°W)
Time: 13:17:15
(UTC+00:00)

AO-92 - Visible Passes

Search period start: 03 August 2021 00:00
Search period end: 13 August 2021 00:00
Orbit: 482 x 496 km, 97.4° (Epoch: 02 August)

Date Brightness Start Highest point End Pass type
(mag) Time Alt. Az. Time Alt. Az. Time Alt. Az.
03 Aug ? 04:19:08 12° ENE 04:19:19 12° ENE 04:20:49 10° NE visible
03 Aug ? 05:53:36 31° NW 05:53:36 31° NW 05:55:54 10° NNW visible
04 Aug ? 05:30:33 46° NNW 05:30:33 46° NNW 05:33:10 10° NNW visible
05 Aug ? 05:07:31 37° NE 05:07:31 37° NE 05:10:11 10° N visible
06 Aug ? 04:44:29 22° ENE 04:44:29 22° ENE 04:46:52 10° NNE visible
06 Aug ? 06:18:56 16° WNW 06:18:56 16° WNW 06:20:12 10° NW visible
07 Aug ? 04:21:26 13° ENE 04:21:26 13° ENE 04:22:58 10° NE visible
07 Aug ? 05:55:54 27° NW 05:55:54 27° NW 05:57:52 10° NNW visible
08 Aug ? 05:32:51 37° NNW 05:32:51 37° NNW 05:35:09 10° NNW visible
09 Aug ? 05:09:48 34° NNE 05:09:48 34° NNE 05:12:10 10° N visible
10 Aug ? 04:46:46 22° NE 04:46:46 22° NE 04:48:53 10° NNE visible
10 Aug ? 06:21:14 14° WNW 06:21:14 14° WNW 06:22:05 10° NW visible
11 Aug ? 04:23:43 13° ENE 04:23:43 13° ENE 04:25:03 10° NE visible
11 Aug ? 05:58:11 22° NW 05:58:11 22° NW 05:59:47 10° NNW visible
12 Aug ? 05:35:08 30° NNW 05:35:08 30° NNW 05:37:05 10° NNW visible
